Date,TemperatureHighF,TemperatureAvgF,TemperatureLowF,DewpointHighF,DewpointAvgF,DewpointLowF,HumidityHigh,HumidityAvg,HumidityLow,PressureMaxIn,PressureMinIn,WindSpeedMaxMPH,WindSpeedAvgMPH,GustSpeedMaxMPH,PrecipitationSumIn
2013-8-1,74.2,70.5,67.9,56.3,35.1,9.5,58,31,1,30.20,29.97,5,0,5,0.47
2013-8-2,85.3,76.0,67.0,67.3,42.6,8.6,60,34,1,30.08,29.95,5,1,5,0.00
2013-8-3,78.8,72.0,67.7,58.2,33.4,11.1,53,27,5,30.09,30.02,4,0,4,0.05
2013-8-4,79.9,71.8,62.3,62.2,39.5,5.1,61,36,2,30.13,30.00,7,1,7,0.00
2013-8-5,78.1,69.7,60.5,57.3,52.7,44.1,62,55,40,30.21,30.13,7,1,7,0.00
2013-8-6,83.3,72.3,59.9,61.8,51.5,28.6,61,49,31,30.28,30.19,6,1,6,0.00
2013-8-7,79.6,73.4,69.8,63.6,46.8,20.1,58,41,15,30.30,30.22,9,1,9,0.00
2013-8-8,83.7,73.9,69.8,43.1,16.0,10.7,25,4,1,30.22,30.16,7,1,7,1.27
2013-8-9,85.3,77.4,72.7,35.5,17.3,13.2,18,3,1,30.18,29.97,5,1,5,0.18
2013-8-10,82.1,76.8,72.0,65.1,39.3,12.5,57,29,1,30.19,30.01,4,0,4,0.00
2013-8-11,81.7,73.5,64.8,64.5,41.1,7.7,58,36,1,30.28,30.18,5,1,5,0.00
2013-8-12,81.4,73.1,67.1,44.5,17.5,8.8,28,7,1,30.19,30.08,4,0,6,0.14
2013-8-13,76.0,71.1,68.4,15.5,11.8,9.8,1,1,1,30.08,29.88,4,0,4,2.77
2013-8-14,74.2,68.6,62.3,55.7,42.5,8.4,60,43,1,30.20,29.88,7,2,7,0.01
2013-8-15,76.0,69.5,58.1,58.5,51.1,26.1,59,52,28,30.30,30.20,6,1,6,0.00
2013-8-16,82.1,69.6,56.5,62.4,42.3,0.8,59,41,10,30.36,30.28,5,1,5,0.00
2013-8-17,82.4,70.0,58.1,64.3,39.3,1.8,59,37,3,30.42,30.35,4,0,4,0.00
2013-8-18,76.7,69.4,63.9,60.3,33.5,6.3,58,31,1,30.41,30.28,8,1,8,0.00
2013-8-19,77.4,70.1,60.7,60.9,37.1,3.8,58,34,1,30.29,30.20,4,0,4,0.00
2013-8-20,87.3,74.6,63.4,69.7,32.4,6.0,57,24,1,30.29,30.21,6,1,6,0.00
2013-8-21,88.9,77.7,66.8,70.4,38.6,8.6,57,26,1,30.33,30.22,4,0,4,0.00
2013-8-22,82.1,74.7,69.8,47.4,18.5,6.9,30,7,1,30.23,30.03,4,0,4,0.02
2013-8-23,79.6,73.1,66.8,62.5,34.2,9.4,57,27,1,30.23,30.02,4,0,4,0.00
2013-8-24,79.2,70.4,61.2,61.5,37.6,4.2,57,35,1,30.50,30.23,8,1,8,0.03
2013-8-25,83.5,69.0,56.2,61.3,34.6,0.4,59,31,1,30.56,30.42,5,1,5,0.00
2013-8-26,85.0,73.9,65.2,67.1,51.6,27.7,59,47,24,30.42,30.08,5,1,5,0.00
2013-8-27,87.3,77.7,69.3,69.1,41.8,10.5,57,31,1,30.08,29.99,6,1,6,0.03
2013-8-28,81.5,73.8,67.1,50.1,18.1,8.8,34,6,1,30.05,29.98,4,0,4,0.01
2013-8-29,78.3,72.3,69.5,43.8,17.2,10.5,30,7,1,30.19,30.01,10,2,10,0.00
2013-8-30,83.9,75.0,67.9,60.3,25.7,9.4,46,14,1,30.18,30.03,4,1,4,0.00
2013-8-31,90.5,77.5,68.0,67.4,24.2,9.5,47,10,1,30.05,29.94,8,1,8,0.00